| time (UTC) | temp C | wind direction | speed KPH | gust KPH | rain 1hr cm | rain 24hr cm | rain mn cm | humidity % | barometer mb |
| 20260502123041 | -3 | 360 | 0.0 | 0.0 | 0.00 | 0.00 | 0.00 | 56 | 1019.6 |
| 20260502121640 | -2 | 360 | 0.0 | 0.0 | 0.00 | 0.00 | 0.00 | 56 | 1019.6 |
| 20260502114536 | -2 | 360 | 0.0 | 0.0 | 0.00 | 0.00 | 0.00 | 55 | 1019.7 |
| 20260502113042 | -2 | 360 | 0.0 | 0.0 | 0.00 | 0.00 | 0.00 | 55 | 1019.7 |
| 20260502111533 | -2 | 360 | 0.0 | 4.8 | 0.00 | 0.00 | 0.00 | 54 | 1019.6 |
| 20260502110036 | -2 | 360 | 0.0 | 3.2 | 0.00 | 0.00 | 0.00 | 54 | 1019.4 |
| 20260502104534 | -2 | 360 | 1.6 | 4.8 | 0.00 | 0.00 | 0.00 | 54 | 1019.5 |
| 20260502103030 | -1 | 360 | 0.0 | 3.2 | 0.00 | 0.00 | 0.00 | 53 | 1019.4 |
| 20260502101528 | -1 | 360 | 0.0 | 1.6 | 0.00 | 0.00 | 0.00 | 53 | 1019.5 |
| 20260502091521 | -1 | 360 | 0.0 | 0.0 | 0.00 | 0.00 | 0.00 | 52 | 1019.0 |
| 20260502071507 | 1 | 360 | 0.0 | 0.0 | 0.00 | 0.00 | 0.00 | 49 | 1019.4 |
| 20260502070006 | 1 | 360 | 0.0 | 0.0 | 0.00 | 0.00 | 0.00 | 48 | 1019.4 |
| 20260502064504 | 1 | 360 | 0.0 | 0.0 | 0.00 | 0.00 | 0.00 | 48 | 1019.4 |
| 20260502063035 | 1 | 360 | 0.0 | 0.0 | 0.00 | 0.00 | 0.00 | 48 | 1019.0 |
| 20260502061527 | 2 | 360 | 0.0 | 0.0 | 0.00 | 0.00 | 0.00 | 47 | 1019.0 |
| 20260502060035 | 2 | 360 | 0.0 | 0.0 | 0.00 | 0.00 | 0.00 | 46 | 1019.0 |
| 20260502054532 | 3 | 360 | 0.0 | 0.0 | 0.00 | 0.00 | 0.00 | 46 | 1018.7 |
| 20260502053051 | 3 | 360 | 0.0 | 0.0 | 0.00 | 0.00 | 0.00 | 46 | 1018.7 |
| 20260502051548 | 3 | 360 | 0.0 | 0.0 | 0.00 | 0.00 | 0.00 | 45 | 1018.7 |
| 20260502050041 | 3 | 360 | 0.0 | 0.0 | 0.00 | 0.00 | 0.00 | 45 | 1018.5 |
| 20260502044537 | 4 | 360 | 0.0 | 0.0 | 0.00 | 0.00 | 0.00 | 44 | 1018.5 |
| 20260502043109 | 5 | 360 | 0.0 | 0.0 | 0.00 | 0.00 | 0.00 | 44 | 1018.5 |
| 20260502041653 | 5 | 360 | 0.0 | 0.0 | 0.00 | 0.00 | 0.00 | 42 | 1018.3 |
| 20260502040057 | 6 | 360 | 0.0 | 4.8 | 0.00 | 0.00 | 0.00 | 39 | 1018.3 |
| 20260502034551 | 6 | 360 | 0.0 | 6.4 | 0.00 | 0.00 | 0.00 | 38 | 1017.9 |
| 20260502033040 | 7 | 360 | 3.2 | 6.4 | 0.00 | 0.00 | 0.00 | 36 | 1017.6 |
| 20260502031539 | 8 | 342 | 1.6 | 6.4 | 0.00 | 0.00 | 0.00 | 34 | 1017.4 |
| 20260502030052 | 8 | 329 | 0.0 | 9.7 | 0.00 | 0.00 | 0.00 | 33 | 1017.3 |
| 20260502024546 | 9 | 324 | 3.2 | 9.7 | 0.00 | 0.00 | 0.00 | 31 | 1016.9 |
| 20260502023055 | 10 | 263 | 6.4 | 14.5 | 0.00 | 0.00 | 0.00 | 29 | 1016.8 |
| 20260502021541 | 10 | 360 | 9.7 | 14.5 | 0.00 | 0.00 | 0.00 | 27 | 1016.7 |
| 20260502020040 | 11 | 360 | 4.8 | 12.9 | 0.00 | 0.00 | 0.00 | 26 | 1016.6 |
| 20260502014541 | 11 | 360 | 9.7 | 17.7 | 0.00 | 0.00 | 0.00 | 25 | 1016.4 |
| 20260502013031 | 12 | 360 | 9.7 | 19.3 | 0.00 | 0.00 | 0.00 | 24 | 1016.5 |
| 20260502011533 | 12 | 360 | 9.7 | 22.5 | 0.00 | 0.00 | 0.00 | 23 | 1016.2 |
| 20260502010030 | 12 | 360 | 8.0 | 16.1 | 0.00 | 0.00 | 0.00 | 21 | 1016.2 |
| 20260502004526 | 12 | 319 | 9.7 | 19.3 | 0.00 | 0.00 | 0.00 | 19 | 1016.2 |
| 20260502003022 | 13 | 335 | 9.7 | 17.7 | 0.00 | 0.00 | 0.00 | 20 | 1016.2 |
| 20260502001518 | 13 | 315 | 6.4 | 20.9 | 0.00 | 0.00 | 0.00 | 16 | 1016.3 |
| 20260502000012 | 14 | 355 | 9.7 | 24.1 | 0.00 | 0.00 | 0.00 | 14 | 1016.4 |
| 20260501234512 | 15 | 320 | 8.0 | 25.7 | 0.00 | 0.00 | 0.00 | 15 | 1016.4 |
| 20260501233005 | 15 | 342 | 17.7 | 30.6 | 0.00 | 0.00 | 0.00 | 15 | 1016.4 |
| 20260501231501 | 15 | 360 | 4.8 | 20.9 | 0.00 | 0.00 | 0.00 | 12 | 1016.3 |
| 20260501230121 | 15 | 360 | 9.7 | 25.7 | 0.00 | 0.00 | 0.00 | 11 | 1016.5 |
| 20260501224602 | 15 | 360 | 17.7 | 29.0 | 0.00 | 0.00 | 0.00 | 15 | 1016.6 |
| 20260501223054 | 15 | 360 | 16.1 | 27.4 | 0.00 | 0.00 | 0.00 | 15 | 1016.6 |
| 20260501221551 | 15 | 328 | 6.4 | 24.1 | 0.00 | 0.00 | 0.00 | 14 | 1016.6 |
| 20260501220041 | 15 | 267 | 11.3 | 27.4 | 0.00 | 0.00 | 0.00 | 8 | 1016.8 |
| 20260501214536 | 15 | 313 | 3.2 | 24.1 | 0.00 | 0.00 | 0.00 | 8 | 1017.0 |
| 20260501213035 | 15 | 12 | 9.7 | 29.0 | 0.00 | 0.00 | 0.00 | 13 | 1017.1 |
| 20260501211530 | 15 | 244 | 6.4 | 22.5 | 0.00 | 0.00 | 0.00 | 11 | 1017.2 |
| 20260501210026 | 15 | 329 | 4.8 | 14.5 | 0.00 | 0.00 | 0.00 | 11 | 1017.3 |
| 20260501204523 | 15 | 347 | 4.8 | 12.9 | 0.00 | 0.00 | 0.00 | 11 | 1017.6 |
| 20260501203025 | 14 | 350 | 8.0 | 14.5 | 0.00 | 0.00 | 0.00 | 13 | 1017.6 |
| 20260501201520 | 14 | 225 | 1.6 | 16.1 | 0.00 | 0.00 | 0.00 | 15 | 1017.6 |
| 20260501200019 | 14 | 360 | 4.8 | 14.5 | 0.00 | 0.00 | 0.00 | 14 | 1017.7 |
| 20260501194617 | 14 | 360 | 3.2 | 14.5 | 0.00 | 0.00 | 0.00 | 19 | 1017.7 |
| 20260501193014 | 13 | 360 | 6.4 | 25.7 | 0.00 | 0.00 | 0.00 | 13 | 1017.9 |
| 20260501191512 | 13 | 360 | 6.4 | 20.9 | 0.00 | 0.00 | 0.00 | 13 | 1018.2 |
| 20260501190009 | 12 | 131 | 6.4 | 25.7 | 0.00 | 0.00 | 0.00 | 15 | 1018.4 |
| 20260501184506 | 12 | 360 | 8.0 | 20.9 | 0.00 | 0.00 | 0.00 | 18 | 1018.7 |
| 20260501183007 | 12 | 130 | 12.9 | 24.1 | 0.00 | 0.00 | 0.00 | 20 | 1018.8 |
| 20260501181504 | 12 | 128 | 14.5 | 25.7 | 0.00 | 0.00 | 0.00 | 20 | 1019.1 |
| 20260501180100 | 11 | 360 | 9.7 | 17.7 | 0.00 | 0.00 | 0.00 | 19 | 1019.1 |
| 20260501174557 | 11 | 360 | 14.5 | 25.7 | 0.00 | 0.00 | 0.00 | 26 | 1019.2 |
| 20260501173106 | 11 | 360 | 11.3 | 30.6 | 0.00 | 0.00 | 0.00 | 22 | 1019.5 |
| 20260501171551 | 11 | 360 | 12.9 | 19.3 | 0.00 | 0.00 | 0.00 | 22 | 1019.5 |
| 20260501170046 | 10 | 360 | 12.9 | 24.1 | 0.00 | 0.00 | 0.00 | 26 | 1019.5 |
| 20260501164602 | 10 | 360 | 6.4 | 24.1 | 0.00 | 0.00 | 0.00 | 25 | 1019.5 |
| 20260501163038 | 9 | 360 | 12.9 | 19.3 | 0.00 | 0.00 | 0.00 | 28 | 1019.5 |
| 20260501161539 | 9 | 360 | 4.8 | 19.3 | 0.00 | 0.00 | 0.00 | 27 | 1019.6 |
| 20260501160030 | 8 | 360 | 8.0 | 14.5 | 0.00 | 0.00 | 0.00 | 34 | 1019.5 |
| 20260501154526 | 7 | 360 | 3.2 | 16.1 | 0.00 | 0.00 | 0.00 | 36 | 1019.5 |
| 20260501153026 | 6 | 360 | 3.2 | 12.9 | 0.00 | 0.00 | 0.00 | 40 | 1019.5 |
| 20260501151522 | 6 | 360 | 6.4 | 14.5 | 0.00 | 0.00 | 0.00 | 47 | 1019.6 |
| 20260501150019 | 4 | 360 | 4.8 | 12.9 | 0.00 | 0.00 | 0.00 | 51 | 1019.8 |
| 20260501144515 | 3 | 360 | 4.8 | 9.7 | 0.00 | 0.00 | 0.00 | 54 | 1019.8 |
| 20260501143008 | 1 | 360 | 0.0 | 8.0 | 0.00 | 0.00 | 0.00 | 56 | 1019.9 |